Regional Weather Roundup
Issued by NWS

Home | Current Version | Previous Version | Text Only | Print | Product List | Glossary Off
Versions: 1 2 3 4 5 6 7 8 9 10 11 12 13 14 15 16 17 18 19 20 21 22 23 24 25 26 27 28 29 30 31 32 33 34 35 36 37 38 39 40 41 42 43 44 45 46 47 48 49 50

215
ASUS43 KFSD 291210
RWRSD

WEATHER ROUNDUP FOR SOUTH DAKOTA
NATIONAL WEATHER SERVICE SIOUX FALLS SD
700 AM CDT WED MAR 29 2017

NOTE: "FAIR" INDICATES FEW OR NO CLOUDS BELOW 12,000 FEET WITH NO
SIGNIFICANT WEATHER AND/OR OBSTRUCTIONS TO VISIBILITY.


SDZ001>005-009-010-012>017-291300-
NORTHWEST AND NORTH CENTRAL SOUTH DAKOTA

CITY           SKY/WX    TMP DP  RH WIND       PRES   REMARKS
BUFFALO          N/A     41  40  96 SW6       30.04S
FAITH            N/A     41  41 100 MISG      30.12S
MOBRIDGE       CLOUDY    43  38  82 CALM      30.13R
$$

SDZ012>016-024>037-041>051-057-063-072>074-291300-
SOUTHWEST AND SOUTH CENTRAL SOUTH DAKOTA

CITY           SKY/WX    TMP DP  RH WIND       PRES   REMARKS
RAPID CTY ARPT CLOUDY    39  37  92 CALM      30.11S
PIERRE         CLOUDY    43  41  93 SW3       30.13S
CUSTER         CLEAR     30  27  88 NW5       30.09S WCI  25
ELLSWORTH AFB  CLOUDY    40  40 100 CALM      30.10S
PHILIP         CLOUDY    42  41  96 CALM      30.14S
PINE RIDGE     CLOUDY    42  41  96 CALM      30.12F
SPEARFISH      FAIR      32  30  93 CALM      30.11F
WINNER         CLOUDY    42  41  96 N7        30.13S FOG
$$

SDZ004>011-016>023-039-040-291300-
NORTHEAST SOUTH DAKOTA

CITY           SKY/WX    TMP DP  RH WIND       PRES   REMARKS
ABERDEEN       CLOUDY    35  31  85 N3        30.16R
WATERTOWN      PTCLDY    37  34  89 CALM      30.15R
BROOKINGS      MOCLDY    38  33  82 NE5       30.15R
SISSETON         N/A     34  33  96 CALM      30.16S
$$

SDZ017-020-022-023-036>040-048>070-291300-
SOUTHEAST SOUTH DAKOTA

CITY           SKY/WX    TMP DP  RH WIND       PRES   REMARKS
SIOUX FALLS    CLOUDY    41  38  89 NE5       30.14R
HURON          CLOUDY    39  37  92 E3        30.14R
CHAMBERLAIN    MOCLDY    42  42  99 CALM      30.14S
MITCHELL       CLOUDY    41  37  86 E6        30.13S
YANKTON        CLOUDY    45  39  81 NE6       30.11S
$$

ABBREVIATIONS USED IN REMARKS
   TC - TEMPERATURE IN CELSIUS
  WCI - WIND CHILL INDEX
   HX - HEAT INDEX
  VSB - VISIBILITY





USA.gov is the U.S. government's official web portal to all federal, state and local government web resources and services.